Regional Weather Roundup
Issued by NWS

Home | Current Version | Previous Version | Text Only | Print | Product List | Glossary Off
Versions: 1 2 3 4 5 6 7 8 9 10 11 12 13 14 15 16 17 18 19 20 21 22 23 24 25 26 27 28 29 30 31 32 33 34 35 36 37 38 39 40 41 42 43 44 45 46 47 48 49 50

385
ASUS45 KBOU 251007
RWRCO

WEATHER ROUNDUP FOR COLORADO
NATIONAL WEATHER SERVICE DENVER/BOULDER CO
400 AM MDT MON SEP 25 2017

NOTE: "FAIR" INDICATES FEW OR NO CLOUDS BELOW 12000 FEET WITH NO
SIGNIFICANT WEATHER AND/OR OBSTRUCTIONS TO VISIBILITY.

COZ001>005-013-030-031-251100-
...NORTHWEST COLORADO...

CITY           SKY/WX    TMP DP  RH WIND       PRES   REMARKS
CRAIG          FAIR      27  24  89 CALM      30.12S
HAYDEN         FAIR      28  26  92 CALM      30.12F
MEEKER         FAIR      30  27  88 CALM      30.11S
RABBIT EARS PA FAIR      27  21  80 SW5       30.15F WCI  21
STEAMBOAT SPGS FAIR      28  27  96 CALM      30.11S
WALDEN         FAIR      27  23  86 SE6       30.13S WCI  20
$$

COZ006>008-011-251100-
...WEST CENTRAL VALLEYS...

CITY           SKY/WX    TMP DP  RH WIND       PRES   REMARKS
GRAND JUNCTION FAIR      37  30  75 E3        30.05S
MONTROSE       FAIR      35  26  69 SE9       30.10S WCI  28
EAGLE          FAIR      29  24  82 SE5       30.13S WCI  24
RIFLE          FAIR      38  32  79 CALM      30.08S
DELTA          NOT AVBL
NUCLA          FAIR      34  23  64 E8        30.11S WCI  27
$$

COZ017>023-064>068-251100-
...SOUTHWEST COLORADO...

CITY           SKY/WX    TMP DP  RH WIND       PRES   REMARKS
DURANGO        FAIR      30  21  69 N5        30.05S WCI  25
CORTEZ         FAIR      29  26  89 NE6       30.06S WCI  23
PAGOSA SPRINGS MOCLDY    37  27  68 CALM      30.07S
TELLURIDE      FAIR      29  20  69 SE6       30.14S WCI  23
WOLF CREEK PAS MOCLDY    28  14  54 S7        30.25S WCI  21
$$

COZ009-010-012-014-032>034-037-058>063-251100-
...CENTRAL COLORADO...

CITY           SKY/WX    TMP DP  RH WIND       PRES   REMARKS
ASPEN          FAIR      29  21  72 VRB3      30.10F
BUENA VISTA    CLOUDY    40  25  54 N6        30.09F
COPPER MTN     FAIR      32  12  43 MISG      30.19S
BERTHOUD PASS  MOCLDY    21  12  68 S12       30.22R WCI   9
COTTONWOOD PAS MOCLDY    41  21  45 W6        30.14F
GUNNISON       FAIR      23  17  78 VRB3      30.14R
KREMMLING      FAIR      28  23  80 CALM      30.13S
LEADVILLE      FAIR      24  18  77 CALM      30.13S
MONARCH PASS   CLOUDY    28  12  50 W12       30.30S WCI  18
SALIDA         CLOUDY    44  28  53 CALM      30.15S
SUNLIGHT       FAIR      25  16  68 CALM      30.20S
WILKERSON PASS CLOUDY    32  18  55 SW9       30.23S WCI  24
$$

COZ069>075-251100-
...SAN LUIS VALLEY/SANGRE DE CRISTO MOUNTAINS...

CITY           SKY/WX    TMP DP  RH WIND       PRES   REMARKS
ALAMOSA        FAIR      30  27  88 E3        30.07R
DEL NORTE      FAIR      34  25  70 W8        30.08S WCI  27
LA VETA PASS   FOG       34  32  93 N10G18    30.27F THUNDER VSB 1/2
SAGUACHE       CLOUDY    41  21  45 NW8       30.08F
$$

COZ035-036-038>040-251100-
...NORTHERN COLORADO FRONT RANGE...

CITY           SKY/WX    TMP DP  RH WIND       PRES   REMARKS
DENVER INTL AP CLOUDY    46  43  89 E6        30.09R
DMNS CITY PARK   N/A     45  45  99 N5        30.11R
AURORA         CLOUDY    44  44 100 NE7       30.10R
FRONT RANGE AP RAIN      46  45  93 NE9       30.09S
ERIE MUNI ARPT DRIZZLE   46  43  91 CALM      30.16R
BOULDER MUN AP CLOUDY    45  43  93 CALM      30.11R
CENTENNIAL     FOG       44  44 100 N8        30.10R VSB 1/8
BROOMFIELD     CLOUDY    45  43  93 CALM      30.12R
FORT COLLINS   CLOUDY    43  40  89 N8        30.11R
LONGMONT       NOT AVBL
$$

COZ041-046-047-076>085-087-088-251100-
...PIKES PEAK/PALMER DIVIDE AND SOUTHERN FOOTHILLS...

CITY           SKY/WX    TMP DP  RH WIND       PRES   REMARKS
COLO. SPRINGS  LGT RAIN  47  43  86 NE10      30.09R
A. F. ACADEMY  CLOUDY    44  44  97 N6        30.09R
SCHRIEVER AFB  MOCLDY    45  42  92 MISG      30.09S
CHEYENNE MTN   MOCLDY    44  40  83 N8        30.05R
ELLICOTT       CLOUDY   N/A N/A N/A NE9       30.05S
FALCON         RAIN      43  42  97 N6        30.12R
FORT CARSON    MOCLDY    47  44  87 N8        30.07R
LIMON            N/A    N/A N/A N/A MISG        N/A
MONUMENT HILL  CLOUDY    41  41 100 N8        30.12R FOG
CANON CITY     CLOUDY    52  50  93 CALM      30.05S
WALSENBURG     NOT AVBL
TRINIDAD       CLOUDY    50  50 100 NE8       30.03S FOG
$$

COZ042>045-048>051-090-091-251100-
...NORTHEAST COLORADO...

CITY           SKY/WX    TMP DP  RH WIND       PRES   REMARKS
GREELEY ARPT   CLOUDY    45  43  93 N12       30.09S
AKRON          LGT RAIN  45  43  93 N13       30.06F FOG
BURLINGTON     CLOUDY    50  49  96 N10       30.00S
WRAY           CLOUDY   N/A N/A N/A N10       30.05S
YUMA           CLOUDY    45  45 100 N14       30.04F FOG
STERLING       CLOUDY    46  45  93 E9        30.05F
HOLYOKE        CLOUDY    52  48  87 N10       30.08R
FORT MORGAN    MOCLDY    45  44  95 NE8       30.08F
$$

COZ086-089-092>099-251100-
...SOUTHEAST COLORADO...

CITY           SKY/WX    TMP DP  RH WIND       PRES   REMARKS
PUEBLO         CLOUDY    54  50  86 NE5       30.03S
LA JUNTA       RAIN      53  51  93 N7        30.01R FOG
LAMAR          LGT RAIN  54  52  93 N12       29.94F FOG
SPRINGFIELD      N/A     53  53 100 NE9       29.97R
$$




USA.gov is the U.S. government's official web portal to all federal, state and local government web resources and services.